sat.trackr.live / text

‹ back to catalog

MEV-1

NORAD 44625 · 2019-067B

PAYLOAD ACTIVE UNKNOWN

§ Identity

Operator
Country
US
Launch date
2019-10-09
Launch site
TYMSC
Launch vehicle
Mass (kg)
RCS (m²)

Purposes: comms

External: N2YO · Heavens-Above · Gunter

§ Orbital elements

Epoch: 2026-09-11T17:06:06.611328Z

Period
1,436.08 min
Inclination
0.8270°
Eccentricity
0.0004140
Mean motion
1.00273141 rev/d
Perigee alt
35,768.8 km
Apogee alt
35,803.7 km
Semi-major
42,164.4 km
B*
0.0000e+0
RAAN
268.0212°
Arg perigee
263.0067°
Mean anomaly
232.3531°
Rev number
6,243

§ Raw data

MEV-11 44625U 19067B   26254.71257652 -.00000163  00000+0  00000+0 0  99972 44625   0.8270 268.0212 0004140 263.0067 232.3531  1.00273141 62437

JSON: /api/v1/satellites/44625 · /tle

For live sub-satellite position, see the globe view (requires WebGL).

§ Visibility from observer

Set your observer location to see the next 7 days of passes ≥ 10°. The values pass through the URL so the page stays shareable.

No JS? Fill the form by hand. The geolocation button needs JavaScript.